[[{"header":{"parameterUnit":"m.s-1","parameterCategory":1,"la1":30.2991,"la2":30.254,"lo1":-89.0895,"lo2":-89.0444,"dy":0.0017,"dx":0.0017,"nx":28,"ny":28,"refTime":"2025-04-06T21:00:00:Z","depth":0,"parameterNumber":2,"parameterNumberName":"U-component_of_WINDS"},"data":[0,0,0,0,0,0,0,0,0,0,0,0,0,0,0,0,0,0,0,0,0,0,0,0,0,0,0,0,0,0,0,0,0,0,0,0,0,0,0,0,0,0,0,0,0,0,0,0,0,0,0,0,0,0,0,0,0,0,2.3563,2.3564,0,2.3704,2.3705,2.3707,2.3727,2.3726,2.3724,2.3723,2.3865,2.387,2.3875,0,0,0,0,0,0,0,0,0,0,0,0,0,2.3314,2.3319,2.3563,2.3565,2.3566,2.3703,2.3705,2.3707,2.3727,2.3726,2.3724,2.3722,2.3864,2.387,2.3876,0,0,0,0,0,0,0,0,0,0,0,0,0,2.3435,2.332,2.3563,2.3593,2.3597,2.3703,2.3705,2.3708,2.3727,2.3725,2.3724,2.3722,2.3862,2.3869,2.3877,2.3961,0,0,2.3899,2.3903,0,0,0,0,0,0,0,0,2.3428,2.3444,2.3587,2.3591,2.3596,2.3696,2.367,2.3793,2.3728,2.3678,2.3723,2.3721,2.381,2.3822,2.3853,2.3968,2.3974,2.39,2.3905,2.3908,2.391,0,0,0,0,0,0,0,2.342,2.3438,2.3618,2.3589,2.3594,2.36,2.3615,2.3693,2.3753,2.3682,2.3684,2.37,2.3813,2.3845,2.3856,2.3976,2.39,2.3907,2.3911,2.3914,2.4174,2.4176,0,0,0,0,0,0,2.3406,2.3431,2.3614,2.3623,2.3506,2.3606,2.3623,2.3666,2.3752,2.3764,2.3702,2.3701,2.3834,2.3847,2.3861,2.3969,2.3908,2.3915,2.3919,2.4171,2.4174,2.4177,0,0,0,0,0,0,2.34,2.3422,2.3608,2.3528,2.3552,2.3613,2.366,2.3669,2.3702,2.3767,2.3778,2.3724,2.3833,2.3851,2.3938,2.3974,2.3918,2.3925,2.4168,2.4172,2.4176,2.4184,0,0,0,0,0,0,2.3393,2.342,2.3452,2.3528,2.3556,2.3682,2.3662,2.3673,2.3715,2.3715,2.3791,2.3802,2.3832,2.3926,2.3945,2.3984,2.3931,2.4165,2.417,2.4174,2.4181,2.4188,2.4193,0,0,0,0,0,2.3384,2.3447,2.3453,2.3475,2.3597,2.3684,2.37,2.3734,2.3718,2.3752,2.3794,2.38,2.3968,2.3935,2.3956,2.3998,2.4163,2.4169,2.4174,2.4178,2.4186,2.4193,0,0,0,0,0,0,2.3372,2.3458,2.3465,2.3555,2.3612,2.3687,2.373,2.3741,2.3803,2.38,2.384,2.3857,2.3943,2.3979,2.3941,2.4087,2.4064,2.4074,2.406,2.4068,2.4074,2.4064,2.3937,0,0,0,0,0,2.338,2.3443,2.3514,2.3586,2.3615,2.3668,2.3706,2.3728,2.3789,2.3813,2.3862,2.392,2.3987,2.403,2.4094,2.4187,2.4205,2.4226,2.4232,2.4237,2.4245,2.43,2.4311,2.4195,2.4195,2.4194,0,0,2.3396,2.3451,2.3488,2.3586,2.3632,2.3698,2.3688,2.3756,2.3805,2.3823,2.3909,2.3948,2.4016,2.4107,2.415,2.414,2.4282,2.4244,2.4247,2.4253,2.4307,2.4318,2.4328,2.4198,2.4198,2.4197,0,0,2.346,2.3507,2.3574,2.3622,2.3694,2.373,2.3746,2.3821,2.3847,2.3935,2.3951,2.401,2.4123,2.4172,2.4212,2.43,2.4309,2.432,2.4353,2.4406,2.4415,2.4424,2.4457,2.4469,2.4328,2.4328,2.4328,0,2.3471,2.357,2.3607,2.3676,2.372,2.3742,2.3811,2.3856,2.3945,2.3975,2.3964,2.4109,2.4156,2.4261,2.4283,2.4314,2.4335,2.4311,2.4411,2.442,2.4428,2.4461,2.4473,2.4329,2.4329,2.4329,2.4329,0,2.3581,2.365,2.3696,2.3783,2.3832,2.3901,2.395,2.3996,2.4015,2.4052,2.4143,2.4201,2.428,2.4306,2.4324,2.4415,2.4407,2.4403,2.4381,2.444,2.4471,2.4484,2.4331,2.433,2.433,2.433,0,0,2.3637,2.3749,2.3765,2.3807,2.389,2.3944,2.4016,2.4094,2.4134,2.4196,2.4258,2.4356,2.4354,2.4399,2.4423,2.447,2.454,2.4461,2.4463,2.4475,2.4647,2.465,2.4664,2.4547,2.4549,2.4551,2.4642,0,2.3712,2.384,2.3878,2.3986,2.4052,2.4076,2.4139,2.4198,2.4236,2.4298,2.434,2.4409,2.44,2.4428,2.4476,2.4521,2.4575,2.4515,2.4606,2.4609,2.4588,2.468,2.4682,2.4765,2.4654,2.4656,2.4658,0,2.3815,2.3881,2.3996,2.4076,2.4105,2.416,2.4238,2.4296,2.4365,2.439,2.4443,2.4465,2.4542,2.4517,2.4626,2.4584,2.4624,2.4653,2.4657,2.4667,2.4636,2.4693,2.4792,2.4805,2.4677,2.4675,2.4674,0,2.3847,2.3965,2.405,2.4085,2.4179,2.4219,2.426,2.4327,2.4373,2.444,2.4471,2.4547,2.4588,2.4647,2.4689,2.4666,2.4795,2.4773,2.4819,2.4818,2.4844,2.4842,2.4952,2.4869,2.4869,2.4869,2.4868,0,2.3926,2.3996,2.4066,2.4119,2.4199,2.4243,2.4322,2.4364,2.4425,2.4487,2.4512,2.457,2.4623,2.4688,2.4722,2.4809,2.4827,2.485,2.4858,2.4848,2.4845,2.4874,2.487,2.4872,2.4871,2.487,2.487,0,2.3974,2.4024,2.4119,2.4202,2.4225,2.428,2.4352,2.4405,2.4446,2.4525,2.4546,2.4609,2.4688,2.4737,2.4836,2.4859,2.4956,2.4961,2.4932,2.4936,2.4981,2.4976,2.5113,2.5135,2.5037,2.5037,2.5038,0,2.4021,2.4076,2.4166,2.4211,2.4253,2.4323,2.4371,2.4418,2.4468,2.4553,2.4597,2.4678,2.4745,2.4871,2.4926,2.5004,2.5012,2.5055,2.5023,2.5013,2.5014,2.5011,2.5018,2.5059,2.506,2.5061,2.5062,0,2.4101,2.4124,2.4192,2.4272,2.4329,2.4393,2.4457,2.4492,2.455,2.4605,2.4687,2.474,2.4844,2.4925,2.5008,2.5051,2.5067,2.5072,2.5087,2.5077,2.5059,2.5071,2.4948,2.5068,2.5067,2.5067,2.5066,2.5066,2.4151,2.4202,2.4275,2.4352,2.4406,2.4466,2.4521,2.4571,2.464,2.4729,2.4753,2.484,2.4912,2.5025,2.5071,2.514,2.5134,2.5155,2.5161,2.5166,2.5168,2.5048,2.5156,2.5155,2.5155,2.5155,2.5155,0,2.4233,2.4282,2.4353,2.4443,2.4504,2.4516,2.4588,2.4639,2.4715,2.4781,2.4848,2.4945,2.5025,2.5089,2.5171,2.5215,2.5225,2.5235,2.5233,2.5243,2.5167,2.5147,2.5226,2.5226,2.5226,2.5226,2.5226,2.5226,2.4283,2.4372,2.4404,2.4521,2.457,2.4656,2.4697,2.4754,2.4807,2.4915,2.4982,2.5023,2.509,2.5178,2.5253,2.527,2.53,2.5309,2.5328,2.5256,2.5248,2.524,2.5221,2.5315,2.5315,2.5398,2.5398,2.5399]},{"header":{"parameterUnit":"m.s-1","parameterCategory":1,"la1":30.2991,"la2":30.254,"lo1":-89.0895,"lo2":-89.0444,"dy":0.0017,"dx":0.0017,"nx":28,"ny":28,"refTime":"2025-04-06T21:00:00:Z","depth":0,"parameterNumber":3,"parameterNumberName":"V-component_of_WINDS"},"data":[0,0,0,0,0,0,0,0,0,0,0,0,0,0,0,0,0,0,0,0,0,0,0,0,0,0,0,0,0,0,0,0,0,0,0,0,0,0,0,0,0,0,0,0,0,0,0,0,0,0,0,0,0,0,0,0,0,0,-4.3468,-4.347,0,-4.3597,-4.3599,-4.36,-4.3572,-4.357,-4.3567,-4.3565,-4.3703,-4.3708,-4.3714,0,0,0,0,0,0,0,0,0,0,0,0,0,-4.3205,-4.321,-4.3468,-4.347,-4.3471,-4.3597,-4.3599,-4.3601,-4.3573,-4.357,-4.3567,-4.3564,-4.3701,-4.3708,-4.3715,0,0,0,0,0,0,0,0,0,0,0,0,0,-4.3325,-4.3211,-4.3468,-4.3472,-4.3474,-4.3597,-4.3599,-4.3601,-4.3573,-4.357,-4.3566,-4.3563,-4.3698,-4.3707,-4.3716,-4.3844,0,0,-4.3743,-4.3747,0,0,0,0,0,0,0,0,-4.3318,-4.3335,-4.347,-4.3472,-4.3474,-4.3565,-4.3556,-4.3683,-4.3574,-4.3536,-4.3565,-4.3561,-4.366,-4.3672,-4.3704,-4.385,-4.3856,-4.3744,-4.3749,-4.3753,-4.3756,0,0,0,0,0,0,0,-4.331,-4.3329,-4.352,-4.3472,-4.3475,-4.3471,-4.3484,-4.358,-4.3617,-4.3539,-4.3537,-4.3553,-4.3661,-4.3696,-4.3707,-4.3858,-4.3744,-4.3751,-4.3757,-4.376,-4.412,-4.4124,0,0,0,0,0,0,-4.3299,-4.3322,-4.3515,-4.3523,-4.3386,-4.3478,-4.3493,-4.354,-4.3616,-4.3624,-4.3556,-4.3551,-4.3682,-4.3697,-4.3712,-4.387,-4.3753,-4.3761,-4.3766,-4.4116,-4.4121,-4.4125,0,0,0,0,0,0,-4.3293,-4.3316,-4.351,-4.3423,-4.3447,-4.3487,-4.3539,-4.3544,-4.3579,-4.3628,-4.3635,-4.3584,-4.368,-4.37,-4.3812,-4.3874,-4.3765,-4.3773,-4.4111,-4.4117,-4.4123,-4.4185,0,0,0,0,0,0,-4.3286,-4.3314,-4.3362,-4.3424,-4.3452,-4.3606,-4.3543,-4.3549,-4.3594,-4.3589,-4.3657,-4.3665,-4.3679,-4.3799,-4.3821,-4.3884,-4.378,-4.4105,-4.4114,-4.4121,-4.4177,-4.4192,-4.4205,0,0,0,0,0,-4.3276,-4.3374,-4.3364,-4.3388,-4.3511,-4.3609,-4.3625,-4.3638,-4.3599,-4.3648,-4.3681,-4.3663,-4.3863,-4.381,-4.3835,-4.3902,-4.4102,-4.4111,-4.4121,-4.4171,-4.4189,-4.4205,0,0,0,0,0,0,-4.3319,-4.3382,-4.3372,-4.3492,-4.3545,-4.3604,-4.3666,-4.3656,-4.3723,-4.3716,-4.373,-4.3746,-4.3861,-4.3892,-4.3832,-4.4032,-4.3977,-4.3992,-4.4007,-4.4025,-4.4039,-4.403,-4.3788,0,0,0,0,0,-4.3342,-4.3415,-4.3467,-4.3568,-4.3595,-4.3626,-4.3669,-4.3674,-4.3731,-4.3754,-4.3794,-4.3852,-4.3928,-4.3978,-4.4051,-4.4181,-4.4198,-4.424,-4.4254,-4.4265,-4.4279,-4.4354,-4.4374,-4.4157,-4.4157,-4.4156,0,0,-4.3392,-4.3435,-4.348,-4.3578,-4.3619,-4.3697,-4.3646,-4.3729,-4.3788,-4.3767,-4.3876,-4.3908,-4.3973,-4.4096,-4.4152,-4.4126,-4.4342,-4.4277,-4.4286,-4.4293,-4.4366,-4.4386,-4.4405,-4.4163,-4.4162,-4.4161,0,0,-4.3521,-4.356,-4.365,-4.3693,-4.3757,-4.3778,-4.3799,-4.3861,-4.3881,-4.399,-4.3977,-4.4048,-4.4178,-4.4227,-4.4268,-4.4419,-4.4407,-4.4442,-4.4516,-4.4589,-4.4607,-4.4622,-4.4679,-4.4699,-4.4455,-4.4455,-4.4455,0,-4.3575,-4.3689,-4.3698,-4.3783,-4.3828,-4.3812,-4.3906,-4.3948,-4.4033,-4.4066,-4.4035,-4.42,-4.4243,-4.4379,-4.4416,-4.4449,-4.4477,-4.4435,-4.4603,-4.4618,-4.4633,-4.4688,-4.4709,-4.4459,-4.4459,-4.4459,-4.4458,0,-4.3753,-4.3833,-4.3898,-4.398,-4.4032,-4.4121,-4.4147,-4.4199,-4.42,-4.4225,-4.4339,-4.4389,-4.4474,-4.4506,-4.4508,-4.4644,-4.4626,-4.4599,-4.4544,-4.4658,-4.471,-4.473,-4.4465,-4.4464,-4.4463,-4.4462,0,0,-4.3913,-4.4,-4.4024,-4.4063,-4.4133,-4.4196,-4.4286,-4.4367,-4.4414,-4.4474,-4.4552,-4.4663,-4.464,-4.4687,-4.4695,-4.4759,-4.488,-4.4725,-4.4727,-4.4754,-4.5037,-4.5058,-4.5082,-4.4871,-4.4875,-4.4878,-4.5032,0,-4.4051,-4.4207,-4.4219,-4.4362,-4.4438,-4.4425,-4.4504,-4.4558,-4.4584,-4.4654,-4.4684,-4.4764,-4.4725,-4.4754,-4.4817,-4.4851,-4.4937,-4.484,-4.4948,-4.4951,-4.4934,-4.5109,-4.5131,-4.5274,-4.5052,-4.5056,-4.5058,0,-4.4233,-4.4298,-4.4447,-4.451,-4.4543,-4.4613,-4.469,-4.4756,-4.4819,-4.4833,-4.4888,-4.4887,-4.4983,-4.4924,-4.5058,-4.4993,-4.5037,-4.5062,-4.5067,-4.508,-4.5013,-4.5129,-4.5319,-4.5342,-4.509,-4.5087,-4.5085,0,-4.4338,-4.4463,-4.457,-4.4603,-4.4678,-4.4728,-4.4762,-4.482,-4.487,-4.4938,-4.4971,-4.505,-4.5094,-4.5156,-4.5179,-4.5133,-4.5314,-4.5256,-4.5332,-4.5332,-4.5372,-4.537,-4.5575,-4.5397,-4.5396,-4.5396,-4.5396,0,-4.4493,-4.4586,-4.4618,-4.4684,-4.4789,-4.4803,-4.4908,-4.4939,-4.4992,-4.5066,-4.506,-4.513,-4.5154,-4.5229,-4.5248,-4.5359,-4.5378,-4.5395,-4.5399,-4.5397,-4.5395,-4.5428,-4.542,-4.5402,-4.5401,-4.5399,-4.5398,0,-4.4629,-4.4654,-4.477,-4.4831,-4.4849,-4.4924,-4.4979,-4.5044,-4.5069,-4.5164,-4.5187,-4.5228,-4.5317,-4.5344,-4.5451,-4.5464,-4.5595,-4.5589,-4.5574,-4.5575,-4.5651,-4.5645,-4.5887,-4.5921,-4.5717,-4.5719,-4.5721,0,-4.4726,-4.4798,-4.4867,-4.4916,-4.4952,-4.503,-4.508,-4.5098,-4.5151,-4.5229,-4.5286,-4.5373,-4.5444,-4.5587,-4.5628,-4.5711,-4.5709,-4.5788,-4.5722,-4.5718,-4.5714,-4.5711,-4.572,-4.5802,-4.5804,-4.5805,-4.5807,0,-4.4899,-4.4908,-4.498,-4.5057,-4.5117,-4.5179,-4.5239,-4.528,-4.5307,-4.5367,-4.5457,-4.5512,-4.5622,-4.5711,-4.5796,-4.5834,-4.5827,-4.5827,-4.585,-4.585,-4.5839,-4.5849,-4.5611,-4.5822,-4.5821,-4.5819,-4.5819,-4.5818,-4.5021,-4.5085,-4.5144,-4.5226,-4.5272,-4.5329,-4.5394,-4.5428,-4.5503,-4.5593,-4.5599,-4.5698,-4.5762,-4.5875,-4.5917,-4.5997,-4.5974,-4.6006,-4.6015,-4.6023,-4.6031,-4.5824,-4.6012,-4.6012,-4.6011,-4.6011,-4.6011,0,-4.5196,-4.5233,-4.5308,-4.5392,-4.5457,-4.5442,-4.5508,-4.5564,-4.565,-4.5709,-4.578,-4.5885,-4.5972,-4.602,-4.6107,-4.6162,-4.6161,-4.6185,-4.6182,-4.6192,-4.6044,-4.6017,-4.6184,-4.6184,-4.6184,-4.6184,-4.6184,-4.6184,-4.5294,-4.5403,-4.542,-4.5553,-4.5591,-4.5686,-4.5726,-4.578,-4.5827,-4.5945,-4.6016,-4.6046,-4.6103,-4.6194,-4.6274,-4.6287,-4.6321,-4.6347,-4.6358,-4.6219,-4.6202,-4.6185,-4.616,-4.6353,-4.6354,-4.6499,-4.65,-4.6501]}]]